BMCB-1 Weather Reports


Display with metric or nautical units.
time (UTC)temp
F
wind
direction
speed
MPH
gust
MPH
rain 1hr
in
rain 24hr
in
rain mn
in
humidity
%
barometer
mb
20260510053013 49 0 0.0 0.0 0.00 0.00 0.00 85 1018.5
20260510052013 49 0 0.0 0.0 0.00 0.00 0.00 85 1018.5
20260510050014 49 0 0.0 0.0 0.00 0.00 0.00 85 1018.6
20260510044013 49 0 0.0 0.0 0.00 0.00 0.00 84 1018.5
20260510043014 49 0 0.0 0.0 0.00 0.00 0.00 84 1018.4
20260510042014 49 0 0.0 0.0 0.00 0.00 0.00 84 1018.4
20260510041042 50 0 0.0 0.0 0.00 0.00 0.00 83 1018.4
20260510040013 50 0 0.0 0.0 0.00 0.00 0.00 83 1018.4
20260510034013 50 0 0.0 0.0 0.00 0.00 0.00 82 1018.6
20260510033014 50 0 0.0 0.0 0.00 0.00 0.00 82 1018.6
20260510032014 50 0 0.0 0.0 0.00 0.00 0.00 82 1018.7
20260510031022 50 0 0.0 0.0 0.00 0.00 0.00 81 1018.7
20260510030014 51 0 0.0 0.0 0.00 0.00 0.00 80 1018.7
20260510025014 51 0 0.0 0.0 0.00 0.00 0.00 80 1018.7
20260510024013 50 0 0.0 0.0 0.00 0.00 0.00 81 1018.8
20260510023014 50 0 0.0 0.0 0.00 0.00 0.00 81 1018.9
20260510022020 50 0 0.0 0.0 0.00 0.00 0.00 81 1018.9
20260510021014 50 0 0.0 0.0 0.00 0.00 0.00 82 1018.9
20260510020014 50 0 0.0 0.0 0.00 0.00 0.00 82 1019.0
20260510013014 49 0 0.0 0.0 0.00 0.00 0.00 84 1019.2
20260510012015 48 0 0.0 0.0 0.00 0.00 0.00 85 1019.4
20260510010014 48 0 0.0 0.0 0.00 0.00 0.00 85 1019.6
20260510005014 48 0 0.0 0.0 0.00 0.00 0.00 85 1019.7
20260510003019 49 0 0.0 0.0 0.00 0.00 0.00 82 1019.7
20260510002014 50 0 0.0 0.0 0.00 0.00 0.00 81 1019.8
20260510001014 49 0 0.0 0.0 0.00 0.00 0.00 82 1019.9
20260509235015 51 0 0.0 0.0 0.00 0.00 0.00 78 1019.8
20260509234022 52 0 0.0 0.0 0.00 0.00 0.00 77 1019.8
20260509232019 52 0 0.0 0.0 0.00 0.00 0.00 75 1019.7
20260509231023 53 0 0.0 0.0 0.00 0.00 0.00 75 1019.8
20260509230022 52 0 0.0 0.0 0.00 0.00 0.00 77 1019.8
20260509225020 51 0 0.0 0.0 0.00 0.00 0.00 77 1020.0
20260509223016 51 0 0.0 0.0 0.00 0.00 0.00 78 1020.2
20260509222016 51 0 0.0 0.0 0.00 0.00 0.00 77 1020.2
20260509221021 52 0 0.0 0.0 0.00 0.00 0.00 75 1020.1
20260509220019 53 0 0.0 0.0 0.00 0.00 0.00 72 1020.1
20260509215023 54 0 0.0 0.0 0.00 0.00 0.00 71 1020.0
20260509214021 54 0 0.0 0.0 0.00 0.00 0.00 71 1020.1
20260509213015 53 0 0.0 0.0 0.00 0.00 0.00 72 1020.1
20260509212021 54 0 0.0 0.0 0.00 0.00 0.00 72 1020.1
20260509211022 54 0 0.0 0.0 0.00 0.00 0.00 71 1020.1
20260509210022 54 0 0.0 0.0 0.00 0.00 0.00 71 1020.0
20260509203022 56 0 0.0 0.0 0.00 0.00 0.00 67 1020.0
20260509201045 57 0 0.0 0.0 0.00 0.00 0.00 64 1019.9
20260509200023 58 0 0.0 0.0 0.00 0.00 0.00 63 1019.9
20260509195049 58 0 0.0 0.0 0.00 0.00 0.00 63 1019.9
20260509194016 59 0 0.0 0.0 0.00 0.00 0.00 62 1019.7
20260509193023 59 0 0.0 0.0 0.00 0.00 0.00 61 1019.5
20260509192020 60 0 0.0 0.0 0.00 0.00 0.00 60 1019.4
20260509191018 60 0 0.0 0.0 0.00 0.00 0.00 60 1019.3
20260509190019 61 0 0.0 0.0 0.00 0.00 0.00 59 1019.3
20260509185017 61 0 0.0 0.0 0.00 0.00 0.00 58 1019.3
20260509184018 62 0 0.0 0.0 0.00 0.00 0.00 57 1019.2
20260509183019 63 0 0.0 0.0 0.00 0.00 0.00 55 1019.1
20260509182023 63 0 0.0 0.0 0.00 0.00 0.00 54 1018.9
20260509181015 64 0 0.0 0.0 0.00 0.00 0.00 54 1018.8
20260509180022 65 0 0.0 0.0 0.00 0.00 0.00 53 1018.8
20260509173015 66 0 0.0 0.0 0.00 0.00 0.00 50 1018.8
20260509171016 66 0 0.0 0.0 0.00 0.00 0.00 50 1018.6
20260509170020 66 0 0.0 0.0 0.00 0.00 0.00 51 1018.6
20260509165015 66 0 0.0 0.0 0.00 0.00 0.00 51 1018.5
20260509164016 67 0 0.0 0.0 0.00 0.00 0.00 50 1018.5
20260509162016 67 0 0.0 0.0 0.00 0.00 0.00 49 1018.4
20260509161022 68 0 0.0 0.0 0.00 0.00 0.00 48 1018.4
20260509160016 68 0 0.0 0.0 0.00 0.00 0.00 46 1018.5
20260509155016 68 0 0.0 0.0 0.00 0.00 0.00 46 1018.5
20260509154015 68 0 0.0 0.0 0.00 0.00 0.00 45 1018.5
20260509153016 68 0 0.0 0.0 0.00 0.00 0.00 45 1018.6
20260509152016 68 0 0.0 0.0 0.00 0.00 0.00 46 1018.7
20260509151016 68 0 0.0 0.0 0.00 0.00 0.00 46 1018.8
20260509150017 68 0 0.0 0.0 0.00 0.00 0.00 45 1018.9
20260509145044 68 0 0.0 0.0 0.00 0.00 0.00 44 1018.9
20260509143016 69 0 0.0 0.0 0.00 0.00 0.00 46 1019.0
20260509142015 68 0 0.0 0.0 0.00 0.00 0.00 46 1019.1
20260509141053 67 0 0.0 0.0 0.00 0.00 0.00 46 1019.3
20260509140014 67 0 0.0 0.0 0.00 0.00 0.00 46 1019.3
20260509135014 67 0 0.0 0.0 0.00 0.00 0.00 46 1019.5
20260509132016 67 0 0.0 0.0 0.00 0.00 0.00 47 1019.7
20260509131014 67 0 0.0 0.0 0.00 0.00 0.00 46 1019.8
20260509125015 67 0 0.0 0.0 0.00 0.00 0.00 48 1020.0
20260509124015 67 0 0.0 0.0 0.00 0.00 0.00 46 1020.0
20260509123017 67 0 0.0 0.0 0.00 0.00 0.00 47 1020.2
20260509122015 67 0 0.0 0.0 0.00 0.00 0.00 49 1020.2
20260509121015 67 0 0.0 0.0 0.00 0.00 0.00 48 1020.3
20260509115016 66 0 0.0 0.0 0.00 0.00 0.00 48 1020.6
20260509114015 67 0 0.0 0.0 0.00 0.00 0.00 48 1020.7
20260509113015 66 0 0.0 0.0 0.00 0.00 0.00 48 1020.8
20260509110016 66 0 0.0 0.0 0.00 0.00 0.00 49 1021.1
20260509105014 65 0 0.0 0.0 0.00 0.00 0.00 50 1021.2
20260509103016 64 0 0.0 0.0 0.00 0.00 0.00 52 1021.3
20260509102016 64 0 0.0 0.0 0.00 0.00 0.00 53 1021.4
20260509101016 64 0 0.0 0.0 0.00 0.00 0.00 54 1021.5
20260509094015 64 0 0.0 0.0 0.00 0.00 0.00 54 1021.6
20260509093015 63 0 0.0 0.0 0.00 0.00 0.00 55 1021.6
20260509092015 62 0 0.0 0.0 0.00 0.00 0.00 55 1021.7
20260509091015 62 0 0.0 0.0 0.00 0.00 0.00 57 1021.7
20260509090015 62 0 0.0 0.0 0.00 0.00 0.00 60 1021.7
20260509083015 60 0 0.0 0.0 0.00 0.00 0.00 66 1021.9
20260509081014 60 0 0.0 0.0 0.00 0.00 0.00 68 1022.0
20260509080015 59 0 0.0 0.0 0.00 0.00 0.00 69 1022.1
20260509075015 59 0 0.0 0.0 0.00 0.00 0.00 71 1022.2
20260509074015 58 0 0.0 0.0 0.00 0.00 0.00 72 1022.3
20260509073016 57 0 0.0 0.0 0.00 0.00 0.00 73 1022.2
20260509072042 56 0 0.0 0.0 0.00 0.00 0.00 74 1022.3
20260509070015 55 0 0.0 0.0 0.00 0.00 0.00 75 1022.4
20260509065019 54 0 0.0 0.0 0.00 0.00 0.00 77 1022.5
20260509064015 53 0 0.0 0.0 0.00 0.00 0.00 77 1022.5
20260509063016 52 0 0.0 0.0 0.00 0.00 0.00 78 1022.6
20260509062015 52 0 0.0 0.0 0.00 0.00 0.00 78 1022.7
20260509061021 51 0 0.0 0.0 0.00 0.00 0.00 79 1022.7
20260509060014 50 0 0.0 0.0 0.00 0.00 0.00 80 1022.7
20260509055015 49 0 0.0 0.0 0.00 0.00 0.00 81 1022.7
20260509054015 49 0 0.0 0.0 0.00 0.00 0.00 82 1022.7